Location: Boiro
(42.6475°N, 8.8834°W)
Time: 11:54:45
(UTC+01:00)

Altair - Pass Details

Date: 08 December 2021
Orbit: 1501 x 1683 km, 47.2° (Epoch: 17 January)

Event Time Altitude Azimuth Distance (km) Brightness Sun altitude
Rises 20:48:10 0° 292° (WNW) 4,709 11.0 -29.7°
Reaches altitude 10° 20:51:15 10° 293° (WNW) 3,705 10.2 -30.3°
Maximum altitude 21:00:35 90° 17° (NNE) 1,510 7.3 -32.0°
Enters shadow 21:01:59 69° 114° (ESE) 1,591 7.2 -32.3°
